Overview Statistics Trail Chart Weather Telemetry Raw packets
 

This is the latest recevied weather packets stored in our database for station/object OK1FET-5. If no packets are shown the sender has not sent any weather packets the latest 10 day(s).

<< 35 36 37 38 39 40 41 >>
Time Temp. Humidity Pressure Rain* Wind** Luminosity Snow
1788019509 26.67° C 56% 1016.9 hPa - - - -
1788018913 26.67° C 47% 1016.9 hPa - - - -
1788018318 26.67° C 58% 1017 hPa - - - -
1788017722 26.11° C 55% 1016.9 hPa - - - -
1788017126 27.78° C 53% 1017 hPa - - - -
1788016530 28.33° C 54% 1016.9 hPa - - - -
1788015935 27.78° C 55% 1016.9 hPa - - - -
1788015343 27.78° C 55% 1017 hPa - - - -
1788014753 26.67° C 51% 1017 hPa - - - -
1788014147 26.67° C 61% 1017 hPa - - - -
1788013552 28.33° C 47% 1017 hPa - - - -
1788012956 28.89° C 58% 1017.1 hPa - - - -
1788012360 27.22° C 63% 1017.2 hPa - - - -
1788011169 27.78° C 60% 1017.3 hPa - - - -
1788010573 27.78° C 61% 1017.3 hPa - - - -
1788009977 28.89° C 53% 1017.3 hPa - - - -
1788009381 28.33° C 62% 1017.4 hPa - - - -
1788008785 27.78° C 57% 1017.5 hPa - - - -
1788008190 26.67° C 63% 1017.5 hPa - - - -
1788007593 26.67° C 54% 1017.4 hPa - - - -
1788007008 27.22° C 51% 1017.5 hPa - - - -
1788006402 26.11° C 58% 1017.5 hPa - - - -
1788005210 25° C 57% 1017.5 hPa - - - -
1788004615 26.11° C 59% 1017.6 hPa - - - -
1788004019 26.67° C 54% 1017.7 hPa - - - -

* Rain since midnight (hover to see other rain measurements)
** Current wind speed in m/s (hover to see current wind gust speed)